Weather History for KIMM - February, 2014

Change the Weather History Date:

Thursday, February 27, 2014

  Actual Average (KFMY) Record (KFMY)
Temperature  
Mean Temperature 68 °F 68 °F  
Max Temperature 78 °F 79 °F 89 °F (1997)
Min Temperature 55 °F 57 °F 38 °F (1965)
Degree Days  
Heating Degree Days 0 1  
Month to date heating degree days 59  
Since 1 July heating degree days 260  
Cooling Degree Days 2 4  
Month to date cooling degree days 98  
Year to date cooling degree days 181  
Growing Degree Days 18 (Base 50)    
Moisture  
Dew Point 65 °F    
Average Humidity 84    
Maximum Humidity 100    
Minimum Humidity 54    
Precipitation  
Precipitation 0.04 in 0.08 in 2.11 in (1983)
Month to date precipitation 2.06  
Year to date precipitation 4.00  
Sea Level Pressure  
Sea Level Pressure 29.89 in    
Wind  
Wind Speed 6 mph (NW)    
Max Wind Speed 10 mph    
Max Gust Speed 17 mph    
Visibility 9 miles    
Events      
T = Trace of Precipitation, MM = Missing Value Source: NWS Daily Summary

Daily Weather History Graph

Daily Weather History Graph

Search for Another Location

Airport or City:

Trip Planner

Search our weather history database for the weather conditions in past years. The results will help you decide how hot, cold, wet, or windy it might be!

Date:

Astronomy

Feb. 27, 2014 Rise Set
Actual Time 6:51 AM EST 6:25 PM EST
Civil Twilight 6:27 AM EST 6:49 PM EST
Nautical Twilight 6:00 AM EST 7:15 PM EST
Astronomical Twilight 5:34 AM EST 7:42 PM EST
Moon 5:15 AM EST (2/27) 4:54 PM EST (2/27)
Length of Visible Light 12h 21m
Length of Day
11h 34m
Waning Crescent, 4% of the Moon is Illuminated
Feb 27
Waning Crescent
Mar 1
New
Mar 8
First Quarter
Mar 16
Full
Mar 23
Last Quarter

Hourly Weather History & Observations

Time (EST) Temp. Dew Point Humidity Pressure Visibility Wind Dir Wind Speed Gust Speed Precip Events Conditions
12:15 AM 71.6 °F - N/A% 29.83 in 7.0 mi WSW 6.9 mph - 0.00 in   Mostly Cloudy
12:35 AM 71.6 °F - N/A% 29.82 in 10.0 mi WSW 8.1 mph - 0.00 in   Partly Cloudy
12:55 AM 71.6 °F 71.6 °F 100% 29.82 in 10.0 mi WSW 4.6 mph - 0.00 in   Scattered Clouds
1:15 AM 71.6 °F 71.6 °F 100% 29.82 in 10.0 mi WSW 5.8 mph - 0.00 in   Mostly Cloudy
1:35 AM 69.8 °F 69.8 °F 100% 29.82 in 10.0 mi SW 6.9 mph - 0.00 in   Mostly Cloudy
1:55 AM 69.8 °F 69.8 °F 100% 29.81 in 10.0 mi SW 5.8 mph - 0.00 in   Mostly Cloudy
2:15 AM 69.8 °F 69.8 °F 100% 29.80 in 10.0 mi SW 5.8 mph - 0.00 in   Mostly Cloudy
2:35 AM 69.8 °F 69.8 °F 100% 29.80 in 10.0 mi SW 4.6 mph - 0.00 in   Mostly Cloudy
2:55 AM 69.8 °F - N/A% 29.80 in 9.0 mi WSW 5.8 mph - 0.00 in   Mostly Cloudy
3:15 AM 69.8 °F - N/A% 29.81 in 10.0 mi WSW 5.8 mph - 0.00 in   Overcast
3:35 AM 69.8 °F 69.8 °F 100% 29.80 in 10.0 mi West 6.9 mph - 0.00 in   Overcast
3:55 AM 69.8 °F 69.8 °F 100% 29.80 in 10.0 mi West 4.6 mph - 0.00 in   Overcast
4:15 AM 69.8 °F 69.8 °F 100% 29.80 in 10.0 mi West 6.9 mph - 0.00 in   Overcast
4:35 AM 69.8 °F 69.8 °F 100% 29.81 in 10.0 mi WNW 8.1 mph - 0.00 in   Overcast
4:55 AM 69.8 °F 69.8 °F 100% 29.82 in 10.0 mi WNW 8.1 mph - 0.00 in   Mostly Cloudy
5:15 AM 69.8 °F 69.8 °F 100% 29.82 in 10.0 mi WNW 5.8 mph - 0.00 in   Mostly Cloudy
5:35 AM 69.8 °F - N/A% 29.83 in 10.0 mi NW 6.9 mph - 0.00 in   Mostly Cloudy
5:55 AM 68.0 °F 68.0 °F 100% 29.84 in 10.0 mi NW 8.1 mph - 0.00 in   Overcast
6:15 AM 66.2 °F 66.2 °F 100% 29.85 in 10.0 mi NW 8.1 mph - 0.00 in   Overcast
6:35 AM 66.2 °F 66.2 °F 100% 29.87 in 10.0 mi NNW 6.9 mph - 0.00 in   Overcast
6:55 AM 66.2 °F 66.2 °F 100% 29.88 in 10.0 mi NNW 6.9 mph - 0.00 in   Overcast
7:15 AM 64.4 °F 64.4 °F 100% 29.88 in 9.0 mi NNW 3.5 mph - 0.00 in   Overcast
7:35 AM 64.4 °F 64.4 °F 100% 29.89 in 10.0 mi NNW 4.6 mph - 0.00 in   Mostly Cloudy
7:55 AM 66.2 °F 66.2 °F 100% 29.90 in 10.0 mi NNW 8.1 mph - 0.00 in   Scattered Clouds
8:15 AM 66.2 °F 66.2 °F 100% 29.90 in 9.0 mi NNW 5.8 mph - 0.00 in   Mostly Cloudy
8:35 AM 68.0 °F 68.0 °F 100% 29.90 in 9.0 mi Calm Calm - 0.00 in   Mostly Cloudy
8:55 AM 68.0 °F 68.0 °F 100% 29.91 in 10.0 mi North 4.6 mph - 0.00 in   Mostly Cloudy
9:15 AM 69.8 °F 66.2 °F 88% 29.93 in 9.0 mi NNW 5.8 mph - 0.00 in   Scattered Clouds
9:35 AM 71.6 °F 66.2 °F 83% 29.93 in 9.0 mi NW 4.6 mph - 0.00 in   Mostly Cloudy
9:55 AM 71.6 °F 66.2 °F 83% 29.94 in 9.0 mi NNW 4.6 mph - 0.00 in   Scattered Clouds
10:15 AM 71.6 °F 66.2 °F 83% 29.94 in 9.0 mi NNW 8.1 mph - 0.00 in   Mostly Cloudy
10:35 AM 71.6 °F 66.2 °F 83% 29.94 in 9.0 mi North 5.8 mph - 0.00 in   Overcast
10:55 AM 71.6 °F 64.4 °F 78% 29.92 in 9.0 mi Calm Calm - 0.00 in   Mostly Cloudy
11:15 AM 73.4 °F 64.4 °F 73% 29.92 in 9.0 mi North 4.6 mph - 0.00 in   Scattered Clouds
11:35 AM 75.2 °F 62.6 °F 65% 29.92 in 9.0 mi Calm Calm - 0.00 in   Partly Cloudy
11:55 AM 78.8 °F 60.8 °F 54% 29.92 in 9.0 mi NNW 5.8 mph - 0.00 in   Scattered Clouds
12:15 PM 75.2 °F 62.6 °F 65% 29.92 in 9.0 mi NNW 3.5 mph - 0.00 in   Mostly Cloudy
12:35 PM 75.2 °F 60.8 °F 61% 29.91 in 10.0 mi WNW 5.8 mph - 0.00 in   Overcast
12:55 PM 75.2 °F 60.8 °F 61% 29.91 in 9.0 mi NW 3.5 mph - 0.00 in   Overcast
1:15 PM 75.2 °F 60.8 °F 61% 29.89 in 9.0 mi NNW 5.8 mph - 0.00 in   Mostly Cloudy
1:35 PM 75.2 °F 62.6 °F 65% 29.88 in 9.0 mi NNW 4.6 mph - 0.00 in   Overcast
1:55 PM 75.2 °F 60.8 °F 61% 29.88 in 9.0 mi Calm Calm - 0.00 in   Mostly Cloudy
2:15 PM 77.0 °F 60.8 °F 57% 29.87 in 9.0 mi NW 5.8 mph - 0.00 in   Mostly Cloudy
2:35 PM 78.8 °F 60.8 °F 54% 29.87 in 8.0 mi NNW 6.9 mph - 0.00 in   Mostly Cloudy
2:55 PM 75.2 °F 60.8 °F 61% 29.87 in 9.0 mi North 9.2 mph - 0.00 in   Overcast
3:15 PM 73.4 °F 62.6 °F 69% 29.87 in 9.0 mi NNW 8.1 mph - 0.00 in   Mostly Cloudy
3:35 PM 73.4 °F 62.6 °F 69% 29.88 in 9.0 mi North 6.9 mph - 0.00 in   Scattered Clouds
3:55 PM 73.4 °F 60.8 °F 65% 29.88 in 9.0 mi NW 5.8 mph - 0.00 in   Scattered Clouds
4:15 PM 73.4 °F 60.8 °F 65% 29.88 in 9.0 mi NNW 4.6 mph - 0.00 in   Scattered Clouds
4:35 PM 71.6 °F 60.8 °F 69% 29.88 in 9.0 mi NW 3.5 mph - 0.00 in   Scattered Clouds
4:55 PM 71.6 °F 62.6 °F 73% 29.88 in 9.0 mi Calm Calm - 0.00 in   Mostly Cloudy
5:15 PM 71.6 °F 60.8 °F 69% 29.88 in 9.0 mi NNW 3.5 mph - 0.00 in   Mostly Cloudy
5:35 PM 71.6 °F 60.8 °F 69% 29.89 in 10.0 mi Calm Calm - 0.00 in   Mostly Cloudy
5:55 PM 69.8 °F 60.8 °F 73% 29.90 in 9.0 mi NW 3.5 mph - 0.00 in   Partly Cloudy
6:15 PM 69.8 °F 60.8 °F 73% 29.90 in 9.0 mi NW 3.5 mph - 0.00 in   Mostly Cloudy
6:35 PM 69.8 °F 62.6 °F 78% 29.92 in 10.0 mi WNW 8.1 mph - 0.00 in   Overcast
6:55 PM 68.0 °F 62.6 °F 83% 29.93 in 10.0 mi WNW 8.1 mph - 0.00 in   Overcast
7:15 PM 66.2 °F 62.6 °F 88% 29.93 in 10.0 mi NW 10.4 mph 17.3 mph 0.00 in   Mostly Cloudy
7:35 PM 64.4 °F 64.4 °F 100% 29.94 in 10.0 mi NW 5.8 mph - 0.00 in   Overcast
7:55 PM 64.4 °F 62.6 °F 94% 29.95 in 9.0 mi NNW 6.9 mph - 0.00 in   Mostly Cloudy
8:15 PM 60.8 °F 60.8 °F 100% 29.96 in 6.0 mi NNW 6.9 mph - 0.00 in   Overcast
8:35 PM 60.8 °F 60.8 °F 100% 29.96 in 7.0 mi NNW 4.6 mph - 0.00 in   Mostly Cloudy
8:55 PM 60.8 °F - N/A% 29.96 in 4.0 mi NNW 3.5 mph - 0.01 in   Mostly Cloudy
9:15 PM 59.0 °F - N/A% 29.97 in 4.0 mi NNW 3.5 mph - 0.01 in   Mostly Cloudy
9:35 PM 59.0 °F - N/A% 29.96 in 5.0 mi North 5.8 mph - 0.02 in   Partly Cloudy
9:55 PM 59.0 °F - N/A% 29.97 in 4.0 mi Calm Calm - 0.02 in   Clear
10:15 PM 59.0 °F - N/A% 29.96 in 5.0 mi Calm Calm - 0.01 in   Clear
10:35 PM 59.0 °F - N/A% 29.98 in 5.0 mi Calm Calm - 0.01 in   Scattered Clouds
10:55 PM 57.2 °F - N/A% 29.97 in 5.0 mi Calm Calm - 0.01 in   Mostly Cloudy
11:15 PM 57.2 °F - N/A% 29.98 in 4.0 mi Calm Calm - 0.00 in   Overcast
11:35 PM 57.2 °F - N/A% 29.97 in 5.0 mi Calm Calm - 0.00 in   Overcast
11:55 PM 55.4 °F - N/A% 29.98 in 5.0 mi NNW 4.6 mph - 0.00 in   Mostly Cloudy